Location: Kitchener
(43.4500°N, 80.5000°W)
Time: 03:53:20
(UTC-04:00)

ATLAS 5 CENTAUR R/B - Visible Passes

Search period start: 19 April 2015 00:00
Search period end: 29 April 2015 00:00
Orbit: 701 x 961 km, 63.4° (Epoch: 15 April)

Date Brightness Start Highest point End Pass type
(mag) Time Alt. Az. Time Alt. Az. Time Alt. Az.
19 Apr 2.8 20:49:09 10° NNW 20:54:52 48° NE 21:00:34 12° ESE visible
19 Apr 3.5 22:34:06 10° NW 22:39:36 36° WSW 22:42:09 26° SSW visible
20 Apr 3.4 22:15:20 10° NW 22:20:54 38° WSW 22:24:28 21° S visible
21 Apr 3.4 21:56:34 10° NW 22:02:12 40° WSW 22:06:50 15° S visible
22 Apr 3.4 21:37:49 10° NW 21:43:30 42° WSW 21:49:18 10° S visible
23 Apr 3.3 21:19:04 10° NW 21:24:47 45° WSW 21:30:41 10° S visible
24 Apr 3.3 21:00:18 10° NW 21:06:04 47° WSW 21:12:02 10° S visible
25 Apr 3.3 20:41:33 10° NW 20:47:22 50° WSW 20:53:23 10° SSE visible
